sat.trackr.live / text

‹ back to catalog

IRIDE-MS2-HEO-6

NORAD 64576 · 2025-135BA

PAYLOAD ACTIVE UNKNOWN

§ Identity

Operator
Country
IT
Launch date
2025-06-23
Launch site
AFWTR
Launch vehicle
Mass (kg)
RCS (m²)

External: N2YO · Heavens-Above · Gunter

§ Orbital elements

Epoch: 2026-05-25T05:37:15.141792Z

Period
96.52 min
Inclination
97.7699°
Eccentricity
0.0002310
Mean motion
14.91876034 rev/d
Perigee alt
590.5 km
Apogee alt
593.7 km
Semi-major
6,970.2 km
B*
1.3852e-4
RAAN
259.7567°
Arg perigee
72.9485°
Mean anomaly
287.1986°
Rev number
5,046

§ Raw data

IRIDE-MS2-HEO-61 64576U 25135BA  26145.23420303  .00001344  00000+0  13852-3 0  99922 64576  97.7699 259.7567 0002310  72.9485 287.1986 14.91876034 50468

JSON: /api/v1/satellites/64576 · /tle

For live sub-satellite position, see the globe view (requires WebGL).

§ Visibility from observer

Set your observer location to see the next 7 days of passes ≥ 10°. The values pass through the URL so the page stays shareable.

No JS? Fill the form by hand. The geolocation button needs JavaScript.

§ Radio — SatNOGS DB

ModeDescriptionDownlinkUplink
FM Mode S - Transmitter 2.264 GHz
FM S-band telemetry 2.264 GHz

2 transmitters · refreshed weekly from db.satnogs.org